Regional Weather Roundup
Issued by NWS

Home | Current Version | Previous Version | Graphics & Text | Print | Product List | Glossary On
Versions: 1 2 3 4 5 6 7 8 9 10 11 12 13 14 15 16 17 18 19 20 21 22 23 24 25 26 27 28 29 30 31 32 33 34 35 36 37 38 39 40 41 42 43 44 45 46 47 48 49 50
362
ASUS43 KTOP 061159
RWRKS

WEATHER ROUNDUP FOR KANSAS
NATIONAL WEATHER SERVICE GOODLAND KS
700 AM CDT FRI MAY 06 2016

NOTE:  "FAIR" INDICATES FEW OR NO CLOUDS BELOW 12,000 FEET WITH NO
SIGNIFICANT WEATHER AND/OR OBSTRUCTIONS TO VISIBILITY.

KSZ001>006-013>018-027>032-041>047-061300-
NORTHWEST KANSAS

CITY           SKY/WX    TMP DP  RH WIND       PRES   REMARKS
GOODLAND       CLOUDY    54  45  71 S20       29.98S
6HR MIN TEMP:  50; 6HR MAX TEMP:  56;

HAYS           CLOUDY    52  39  62 S6        30.03S
HILL CITY      CLOUDY    55  44  66 VRB3      30.02R
6HR MIN TEMP:  55; 6HR MAX TEMP:  62;

RUSSELL        PTCLDY    53  45  74 S12       30.02S
6HR MIN TEMP:  52; 6HR MAX TEMP:  61;

$$

KSZ061>065-074>080-084>089-061300-
SOUTHWEST KANSAS

CITY           SKY/WX    TMP DP  RH WIND       PRES   REMARKS
DODGE CITY     CLOUDY    53  43  68 S14       30.04S
6HR MIN TEMP:  52; 6HR MAX TEMP:  57;

ELKHART          N/A     48  44  86 S6          N/A
GARDEN CITY    CLOUDY    52  45  77 SE13      30.02R
6HR MIN TEMP:  52; 6HR MAX TEMP:  57;

GREAT BEND     CLOUDY    52  41  66 S7        30.04S
LIBERAL        CLEAR     52  43  71 SE9       30.05R
$$

KSZ066>073-081>083-090>101-061300-
SOUTHEAST KANSAS

CITY           SKY/WX    TMP DP  RH WIND       PRES   REMARKS
CHANUTE        CLEAR     47  44  90 S3        30.09R
6HR MIN TEMP:  46; 6HR MAX TEMP:  55;

COFFEYVILLE    CLEAR     48  47  96 CALM      30.10R
6HR MIN TEMP:  46; 6HR MAX TEMP:  54;

HUTCHINSON     CLEAR     46  43  89 CALM      30.06S
6HR MIN TEMP:  42; 6HR MAX TEMP:  58;

MEDICINE LODGE   N/A     53  45  74 SE5       30.06R
NEWTON         PTCLDY    50  39  66 SE6       30.10R
PARSONS        CLEAR     46  45  96 CALM      30.10R
6HR MIN TEMP:  46; 6HR MAX TEMP:  51;

WICHITA INTL   MOCLDY    48  44  86 SW3       30.07R
6HR MIN TEMP:  48; 6HR MAX TEMP:  60;

WICHITA JABRA  CLEAR     46  43  89 SE3       30.07R
6HR MIN TEMP:  45; 6HR MAX TEMP:  58;

WINFIELD       CLEAR     48  44  86 CALM      30.30F
6HR MIN TEMP:  47; 6HR MAX TEMP:  55;

$$

KSZ007>012-019>026-033>040-048>060-102>105-061300-
NORTHEAST KANSAS

CITY           SKY/WX    TMP DP  RH WIND       PRES   REMARKS
CONCORDIA      CLEAR     53  42  66 CALM      30.03R
6HR MIN TEMP:  53; 6HR MAX TEMP:  61;

EMPORIA        CLEAR     49  45  86 S7        30.07R
6HR MIN TEMP:  47; 6HR MAX TEMP:  55;

LAWRENCE       CLEAR     45  44  97 CALM      30.07R
6HR MIN TEMP:  43; 6HR MAX TEMP:  49;

MANHATTAN      CLEAR     45  41  86 CALM      30.05R
6HR MIN TEMP:  44; 6HR MAX TEMP:  52;

OLATHE IND     CLEAR     50  45  83 SE6       30.08R
6HR MIN TEMP:  46; 6HR MAX TEMP:  52;

OLATHE EXE     CLEAR     50  41  71 S3        30.08R
6HR MIN TEMP:  50; 6HR MAX TEMP:  54;

SALINA         CLOUDY    48  44  86 S5        30.05R
6HR MIN TEMP:  47; 6HR MAX TEMP:  54;

TOPEKA BILLARD CLEAR     50  47  89 CALM      30.06R
6HR MIN TEMP:  48; 6HR MAX TEMP:  53;

TOPEKA FORBES  CLEAR     48  45  89 SE3       30.06R
6HR MIN TEMP:  47; 6HR MAX TEMP:  54;

$$




USA.gov is the U.S. government's official web portal to all federal, state and local government web resources and services.